STARLINK-34618, 64770

Orbit data source: Space-Track

STARLINK-34618, 64770 is a payload satellite owned by SpaceX/Seattle (US) in LEO that was launched on Tue, 08 Jul 2025 UTC via an FALCON 9 launch vehicle from the Air Force Eastern Test Range (AFETR). Payload-class satellites include a variety of spacecraft equipped with specific instruments for various scientific and technological missions. These include communications satellites like Starlink; space stations such as the ISS; scientific satellites like the Hubble; Earth observation satellites from companies like Planet Labs, Umbra, and HawkEye 360; GPS; miniature CubeSats for education and research; and military/defense satellites.

Loading next visibility...
Identifier
64770, 2025-147R
Orbit
LEO
Country
Flag of USUS
Related business
Manufacturer
SpaceX/Seattle
Mission
Operational Commercial Communications
Bus & Motor
STARLINK V2MO, Unknown motor
Mass
575 kg wet, ~530 kg dry
Launch date (UTC)
2025-07-08 (11 months ago)
Launch vehicle
FALCON 9
Launch site
Air Force Eastern Test Range (AFETR)
Object type
Payload
Rocket body
Debris
Shape & HBR
Box + 2 Pan, 17.7 m
Radar Cross Section
36.964 m², Large (>1 m²)

Expand to show TLE details & history
Last TLE update: 2 days ago

TLE from 2 days ago
0 STARLINK-34618
1 64770U 25147R   26170.17499739  .00019348  00000-0  58236-3 0  9990
2 64770  53.1587 129.6627 0001344  96.4336 263.6820 15.34395223 54240
Epoch: 2026-06-19T04:11Z
TLE epoch observation values (Epoch: 2026-06-19T04:11:59.774Z)
Latitude
0.00001°
Longitude
159.2559°
Altitude
463.72 km
Speed
7.636 km/s
True Right ascension
08h 38m 39s
True Declination
0° 00' 00"
Sunlit
Object was in daylight at epoch
Visualization orbit readout
Latitude
Unknown
Longitude
Unknown
Altitude
Unknown
Speed
Unknown
Apparent Right ascension
Unknown
Apparent Declination
Unknown
Sunlit
N/A
Visualization observer readout
Local Sidereal Time
07:21:55
Azimuth
Unknown
Elevation
Unknown
Doppler factor
Unknown
Orbital elements
Apogee altitude
463.894 km
Perigee altitude
462.055 km
Semi-major axis
6,841.112 km
Eccentricity
0.00013
Inclination
53.1587°
RAAN
129.6627°
Arg. of periapsis
96.4336°
True anomaly
263.66669°
Mean anomaly
263.682°
Eccentric anomaly
263.67435°
Mean motion
3.83578 °/min
Orbital period
93.85 mins
BSTAR
0.00058236
Loading maneuver chart data...
Computing Atmospheric mass density...
Loading historical data...
Loading historical data...
Loading historical data...
Loading historical data...
Loading historical data...
Loading historical data...
Loading historical data...

Documentation

Showing up to 5 results
|